Location: Cheching
(60.0667°N, 164.2167°W)
Time: 21:26:37
(UTC+00:00)

LilacSat-2 - Pass Details

Date: 21 January 2021
Orbit: 512 x 534 km, 97.5° (Epoch: 07 March)

Event Time Altitude Azimuth Distance (km) Brightness Sun altitude
Rises 15:51:40 0° 23° (NNE) 2,687 ? -26.5°
Reaches altitude 10° 15:54:16 10° 41° (NE) 1,795 ? -26.2°
Maximum altitude 15:57:07 19° 89° (E) 1,298 ? -25.9°
Drops below altitude 10° 15:59:59 10° 137° (SE) 1,790 ? -25.5°
Sets 16:02:33 0° 155° (SSE) 2,678 ? -25.2°
